TimeCDT,TemperatureF,Dew PointF,Humidity,Sea Level PressureIn,VisibilityMPH,Wind Direction,Wind SpeedMPH,Gust SpeedMPH,PrecipitationIn,Events,Conditions,WindDirDegrees,DateUTC
12:58 AM,68.0,66.0,93,29.98,10.0,North,3.5,-,N/A,,Scattered Clouds,350,2013-07-14 05:58:00
1:09 AM,69.8,66.2,88,29.99,10.0,North,3.5,-,N/A,,Mostly Cloudy,350,2013-07-14 06:09:00
1:14 AM,69.8,66.2,88,29.99,10.0,NNW,3.5,-,N/A,,Mostly Cloudy,340,2013-07-14 06:14:00
1:27 AM,69.8,66.2,88,29.98,10.0,North,3.5,-,N/A,,Mostly Cloudy,360,2013-07-14 06:27:00
1:43 AM,69.8,66.2,88,29.98,10.0,North,4.6,-,N/A,,Mostly Cloudy,10,2013-07-14 06:43:00
1:58 AM,69.1,66.9,93,29.97,10.0,NNE,5.8,-,0.00,,Overcast,20,2013-07-14 06:58:00
2:11 AM,69.8,66.2,88,29.98,10.0,NNE,6.9,-,N/A,,Overcast,20,2013-07-14 07:11:00
2:58 AM,70.0,66.9,90,29.96,10.0,NNE,4.6,-,N/A,,Overcast,20,2013-07-14 07:58:00
3:18 AM,69.8,68.0,94,29.97,10.0,NNE,3.5,-,N/A,,Overcast,30,2013-07-14 08:18:00
3:58 AM,70.0,68.0,93,29.97,10.0,NNE,3.5,-,N/A,,Overcast,30,2013-07-14 08:58:00
4:58 AM,72.0,70.0,93,29.99,10.0,NE,4.6,-,N/A,,Overcast,50,2013-07-14 09:58:00
5:52 AM,71.6,71.6,100,30.01,2.5,ENE,3.5,-,N/A,,Overcast,70,2013-07-14 10:52:00
5:58 AM,72.0,70.0,93,30.00,2.0,ENE,4.6,-,N/A,,Overcast,70,2013-07-14 10:58:00
6:06 AM,71.6,71.6,100,30.01,1.5,ENE,4.6,-,N/A,,Overcast,70,2013-07-14 11:06:00
6:33 AM,71.6,71.6,100,30.02,2.5,ENE,4.6,-,0.00,Rain,Light Rain,60,2013-07-14 11:33:00
6:38 AM,71.6,71.6,100,30.02,4.0,ENE,3.5,-,0.00,Rain,Light Rain,60,2013-07-14 11:38:00
6:58 AM,72.0,71.1,97,30.01,7.0,Calm,Calm,-,0.00,,Overcast,0,2013-07-14 11:58:00
7:58 AM,75.0,72.0,90,30.02,10.0,East,4.6,-,N/A,,Overcast,80,2013-07-14 12:58:00
8:52 AM,75.2,71.6,89,30.04,10.0,ENE,4.6,-,N/A,,Overcast,60,2013-07-14 13:52:00
8:58 AM,75.9,72.0,87,30.03,10.0,ENE,4.6,-,N/A,,Overcast,60,2013-07-14 13:58:00
9:18 AM,77.0,71.6,83,30.04,10.0,East,8.1,-,N/A,,Mostly Cloudy,90,2013-07-14 14:18:00
9:45 AM,77.0,71.6,83,30.05,10.0,East,4.6,-,N/A,,Overcast,80,2013-07-14 14:45:00
9:54 AM,77.0,71.6,83,30.05,10.0,East,5.8,-,N/A,,Overcast,80,2013-07-14 14:54:00
9:58 AM,75.9,72.0,87,30.04,10.0,East,4.6,-,N/A,,Overcast,90,2013-07-14 14:58:00
10:40 AM,77.0,73.4,89,30.06,10.0,East,5.8,-,0.01,,Overcast,90,2013-07-14 15:40:00
10:58 AM,79.0,73.0,82,30.05,10.0,East,6.9,-,0.01,,Overcast,90,2013-07-14 15:58:00
11:03 AM,78.8,73.4,83,30.05,10.0,East,10.4,-,N/A,,Mostly Cloudy,90,2013-07-14 16:03:00
11:26 AM,80.6,73.4,79,30.05,10.0,ESE,10.4,-,N/A,,Mostly Cloudy,110,2013-07-14 16:26:00
11:58 AM,81.0,73.0,77,30.05,10.0,East,9.2,-,N/A,,Mostly Cloudy,80,2013-07-14 16:58:00
12:51 PM,78.8,71.6,78,30.06,10.0,Variable,5.8,-,N/A,,Mostly Cloudy,0,2013-07-14 17:51:00
12:58 PM,79.0,72.0,79,30.05,10.0,East,5.8,-,0.00,Rain,Light Rain,80,2013-07-14 17:58:00
1:58 PM,80.1,75.0,85,30.03,10.0,NNE,4.6,-,0.00,,Partly Cloudy,30,2013-07-14 18:58:00
2:35 PM,80.6,73.4,79,30.03,9.0,NE,4.6,-,N/A,Thunderstorm,Thunderstorm,50,2013-07-14 19:35:00
2:50 PM,78.8,75.2,89,30.03,4.0,East,3.5,-,0.02,Rain,Light Rain,80,2013-07-14 19:50:00
2:58 PM,78.1,75.0,90,30.03,8.0,NE,3.5,-,0.02,Rain,Light Rain,50,2013-07-14 19:58:00
3:07 PM,77.0,73.4,89,30.04,10.0,SSW,11.5,17.3,0.00,Thunderstorm,Thunderstorm,200,2013-07-14 20:07:00
3:11 PM,75.2,71.6,89,30.04,10.0,South,8.1,17.3,0.00,Thunderstorm,Thunderstorm,180,2013-07-14 20:11:00
3:18 PM,75.2,71.6,89,30.04,10.0,SSW,8.1,-,0.00,Thunderstorm,Thunderstorm,200,2013-07-14 20:18:00
3:32 PM,75.2,71.6,89,30.03,10.0,Calm,Calm,-,0.00,,Mostly Cloudy,0,2013-07-14 20:32:00
3:41 PM,75.2,71.6,89,30.03,10.0,Calm,Calm,-,0.00,,Mostly Cloudy,0,2013-07-14 20:41:00
3:58 PM,75.9,73.0,91,30.01,10.0,Calm,Calm,-,0.00,,Overcast,0,2013-07-14 20:58:00
4:27 PM,75.2,73.4,94,30.01,1.8,Calm,Calm,-,0.03,,Overcast,0,2013-07-14 21:27:00
4:37 PM,75.2,73.4,94,30.01,2.0,SSW,9.2,-,0.05,,Overcast,200,2013-07-14 21:37:00
4:41 PM,75.2,73.4,94,30.02,3.0,Calm,Calm,-,0.06,,Overcast,0,2013-07-14 21:41:00
4:48 PM,77.0,73.4,89,30.02,5.0,Calm,Calm,-,0.06,,Overcast,0,2013-07-14 21:48:00
4:58 PM,78.1,73.9,87,30.01,10.0,South,3.5,-,0.06,,Overcast,170,2013-07-14 21:58:00
5:11 PM,78.8,73.4,83,30.02,1.5,Variable,3.5,-,0.09,,Overcast,0,2013-07-14 22:11:00
5:16 PM,75.2,73.4,94,30.02,1.0,Calm,Calm,-,0.10,,Overcast,0,2013-07-14 22:16:00
5:21 PM,77.0,75.2,94,30.01,2.5,Calm,Calm,-,0.10,,Mostly Cloudy,0,2013-07-14 22:21:00
5:23 PM,78.8,75.2,89,30.01,8.0,Calm,Calm,-,0.10,,Mostly Cloudy,0,2013-07-14 22:23:00
5:58 PM,82.0,75.0,79,30.00,10.0,East,4.6,-,0.10,,Clear,80,2013-07-14 22:58:00
6:16 PM,80.6,75.2,84,30.02,10.0,Calm,Calm,-,N/A,,Mostly Cloudy,0,2013-07-14 23:16:00
6:48 PM,80.6,75.2,84,30.02,10.0,East,3.5,-,N/A,,Scattered Clouds,100,2013-07-14 23:48:00
6:58 PM,80.1,75.0,85,30.02,10.0,ESE,3.5,-,N/A,,Partly Cloudy,120,2013-07-14 23:58:00
7:58 PM,77.0,73.9,90,30.04,10.0,Calm,Calm,-,N/A,,Scattered Clouds,0,2013-07-15 00:58:00
8:09 PM,77.0,73.4,89,30.06,10.0,East,3.5,-,N/A,,Mostly Cloudy,80,2013-07-15 01:09:00
8:51 PM,77.0,73.4,89,30.07,10.0,East,4.6,-,N/A,,Scattered Clouds,90,2013-07-15 01:51:00
8:58 PM,77.0,73.9,90,30.06,10.0,East,4.6,-,N/A,,Partly Cloudy,90,2013-07-15 01:58:00
9:58 PM,75.9,73.9,94,30.07,10.0,Calm,Calm,-,N/A,,Clear,0,2013-07-15 02:58:00
10:58 PM,75.9,73.0,91,30.08,10.0,Calm,Calm,-,N/A,,Partly Cloudy,0,2013-07-15 03:58:00
11:58 PM,75.0,73.0,94,30.09,10.0,Calm,Calm,-,N/A,,Clear,0,2013-07-15 04:58:00